Theta_e
305 305 305 304 304 303 303 304 304 305 304 304 303 303 303 303 303 302 301 300 300 300 300 299 299 300 301 302 304 304 303 303 303 303 303 304 303 303 303 308 313 319 322
304 305 305 304 303 303 303 304 304 304 303 303 302 302 302 302 302 302 301 299 299 299 299 299 299 299 300 301 307 308 307 312 310 310 307 306 305 303 303 303 309 313 319
303 304 303 303 302 302 302 303 303 303 303 303 302 301 301 301 301 301 300 299 298 298 298 298 298 298 299 305 309 307 306 304 305 309 307 304 304 306 309 313 305 304 313
302 303 303 301 301 301 301 302 302 302 302 302 302 301 301 301 301 300 298 297 298 297 297 297 297 297 297 299 301 304 301 306 309 305 301 301 302 302 302 302 304 304 304
303 302 302 301 300 300 300 301 301 302 302 302 301 300 300 300 300 299 297 297 296 296 296 296 296 296 296 296 296 296 300 302 303 301 300 300 300 300 300 302 302 305 303
303 302 301 300 299 298 299 300 301 301 301 301 301 300 300 299 299 297 297 296 296 296 296 295 295 295 295 295 295 296 296 296 296 297 297 298 299 299 298 298 301 302 301
303 302 301 299 299 298 298 299 300 300 300 300 300 300 299 298 297 296 295 295 295 294 294 295 295 295 295 296 296 295 295 294 295 295 295 296 296 298 298 298 299 299 300
302 302 300 299 298 298 297 298 299 300 300 299 299 299 298 297 297 296 295 295 295 295 294 294 294 294 294 294 294 293 293 293 293 294 295 295 296 296 297 297 298 299 300
302 302 300 299 298 297 297 298 298 299 299 299 298 298 298 297 296 296 296 295 295 294 294 294 295 294 294 293 293 292 292 292 293 293 294 294 295 295 296 296 297 297 298
303 302 300 298 297 297 296 297 297 298 298 298 298 297 298 297 296 295 295 295 294 293 293 294 294 294 293 293 292 292 292 293 293 294 294 294 294 294 295 295 295 296 297
303 301 300 298 297 296 296 296 297 297 297 297 297 297 297 297 296 295 295 294 293 292 292 292 292 292 292 293 292 293 293 292 293 292 293 293 294 294 294 294 295 295 296
303 302 300 299 298 297 295 295 296 296 296 296 296 296 296 296 296 296 294 293 293 293 292 292 291 291 291 291 290 290 290 290 291 291 292 292 291 291 291 292 292 293 295
304 303 302 301 299 297 295 295 295 296 296 296 296 296 296 295 295 295 293 292 291 292 292 292 292 292 291 290 290 290 290 290 290 290 290 290 290 290 290 291 291 291 292
306 305 302 300 299 297 296 295 294 295 295 295 295 295 295 294 294 293 292 291 290 290 291 290 290 290 290 290 290 289 289 290 290 290 290 289 290 290 290 291 291 291 291
305 305 303 302 300 298 296 295 294 294 294 294 294 294 294 294 294 293 292 290 290 290 291 289 289 290 289 289 289 289 290 290 290 289 289 290 290 290 290 290 290 290 291
305 304 303 302 300 298 296 295 294 293 294 294 294 294 294 294 293 292 291 289 289 288 288 290 290 290 290 290 290 290 290 290 290 290 289 289 289 290 290 290 290 290 290
306 305 303 302 301 299 297 295 294 293 293 293 294 294 294 293 293 292 290 289 288 288 287 287 287 288 289 289 289 289 289 289 289 289 289 289 289 289 289 288 289 289 290
306 305 304 302 301 300 298 296 295 293 293 293 293 293 293 293 292 291 290 288 288 287 286 287 286 286 287 287 287 287 286 286 286 287 287 287 288 288 288 288 288 288 288
307 306 304 303 302 300 299 297 295 294 293 293 293 293 293 292 292 291 290 288 287 286 286 286 285 286 285 285 285 285 285 285 285 285 285 285 285 285 285 286 287 287 287
303 304 306 303 301 301 300 298 296 294 293 292 292 292 292 292 291 291 288 287 286 286 286 285 285 285 284 284 284 284 285 285 285 285 285 284 283 283 284 285 284 285 286
304 302 301 302 301 299 300 299 297 295 294 292 291 291 291 291 290 289 288 287 286 286 286 285 284 284 284 284 284 283 283 284 284 284 284 282 283 282 283 283 283 284 284
300 300 301 299 298 299 299 298 297 295 294 293 291 291 290 290 290 289 287 286 286 286 286 285 286 285 285 284 283 282 282 283 281 283 282 282 282 282 283 282 282 282 282
299 299 299 298 299 297 297 296 295 294 294 292 291 290 290 290 289 287 286 286 286 286 286 287 286 285 285 283 283 282 281 279 280 281 280 279 281 282 282 281 282 282 282
296 297 297 297 297 296 295 295 294 294 292 292 291 290 289 289 289 287 286 286 286 286 286 285 285 284 283 282 281 280 280 278 279 280 279 278 280 281 281 281 282 283 282
292 293 294 295 294 295 295 294 293 293 292 291 290 288 288 288 287 286 285 284 285 285 285 284 284 283 281 280 280 279 279 278 278 279 278 277 279 279 279 280 280 282 281
289 290 291 292 292 292 293 292 292 292 290 289 288 288 287 286 286 285 285 285 285 285 284 283 283 281 280 280 279 279 278 278 277 277 276 275 278 277 275 277 278 281 278
Wind_Speed
24 22 19 17 14 12 11 10 10 11 13 14 14 15 15 15 15 15 14 13 12 12 11 11 12 10 10 8 6 8 9 10 11 13 13 12 14 15 19 22 21 20 19
27 25 23 20 18 16 13 12 11 10 11 13 14 13 13 14 14 14 13 13 12 11 11 10 10 10 8 7 3 3 3 4 2 4 9 12 12 12 12 14 18 19 20
30 28 26 24 21 19 16 13 12 11 12 13 14 14 14 15 15 14 12 11 9 9 9 7 8 6 2 4 4 4 3 7 6 6 11 13 12 10 5 8 13 16 18
33 31 29 26 23 20 18 15 13 12 12 12 13 14 14 15 15 13 10 9 7 7 7 6 6 6 6 5 3 1 4 10 4 7 11 11 13 15 17 18 16 15 16
36 34 31 29 26 24 22 19 16 14 12 13 13 13 13 14 13 10 8 8 6 6 6 6 6 5 5 6 7 6 4 6 7 11 9 7 14 15 14 14 16 17 19
38 37 34 32 29 28 25 21 19 16 13 13 13 13 13 12 10 7 5 6 6 6 6 5 4 6 10 10 9 10 10 10 11 12 13 15 17 16 13 12 14 19 20
41 40 38 35 33 30 26 24 23 19 15 14 12 11 12 9 5 6 4 1 1 1 4 7 9 9 8 8 9 9 9 10 11 13 14 15 16 18 19 19 19 21 22
44 42 40 38 35 32 31 29 26 22 19 15 10 10 3 7 8 9 9 8 3 5 7 6 5 6 5 5 5 5 6 7 9 12 14 16 17 18 20 22 23 24 26
45 45 41 39 36 34 33 30 28 25 22 16 12 7 3 3 4 10 10 8 9 8 8 6 5 5 4 4 4 4 6 11 13 15 17 18 19 20 21 22 23 23 23
48 46 43 40 38 36 34 32 30 27 24 20 14 11 10 11 6 5 7 7 9 9 7 7 6 5 5 5 6 7 15 17 20 22 23 24 24 24 23 24 24 23 23
48 47 44 42 40 38 36 35 34 31 27 25 20 14 12 12 13 13 12 10 10 8 6 4 4 7 7 7 6 14 18 21 23 24 25 26 28 29 29 29 28 27 25
47 46 44 43 42 41 40 38 35 32 29 26 22 18 15 14 15 15 15 14 13 9 10 9 6 5 9 10 16 21 23 25 27 27 28 29 29 30 31 31 31 29 26
48 48 47 47 46 43 41 39 37 35 33 29 24 21 19 17 16 17 17 16 14 12 7 7 9 9 11 17 22 24 27 29 30 29 29 29 30 32 34 34 33 30 28
41 44 47 46 44 42 41 41 39 37 34 32 29 25 21 19 18 16 16 15 15 13 12 7 9 8 16 19 23 25 28 30 31 31 31 31 32 33 34 35 34 33 30
38 39 41 44 45 44 43 43 42 40 38 35 31 27 24 21 20 20 18 17 15 12 12 10 10 15 19 20 23 26 30 30 32 32 31 32 33 34 35 36 35 35 34
39 39 38 40 44 45 45 45 45 42 41 38 35 31 28 24 22 21 20 19 17 16 13 13 14 17 18 19 23 26 28 29 30 33 34 33 33 34 35 35 37 38 36
41 41 40 39 40 44 47 47 46 44 43 41 38 36 31 27 24 22 22 21 20 19 18 18 18 17 17 21 25 28 30 29 31 32 32 33 33 35 37 38 38 37 38
44 42 41 41 41 42 46 49 48 47 47 45 42 39 35 31 28 25 24 23 22 21 20 19 19 19 20 23 25 29 33 35 36 35 33 33 33 34 35 36 37 37 37
48 48 47 45 44 44 47 50 50 49 49 47 44 42 38 34 30 27 26 25 23 22 21 19 21 21 24 26 28 30 33 36 39 40 39 35 39 41 42 38 39 40 39
52 52 52 50 48 45 47 49 50 51 50 50 48 45 41 36 32 29 28 25 23 20 22 20 20 21 24 26 30 34 38 38 40 41 37 40 46 48 49 45 46 45 44
49 52 54 53 50 49 49 51 52 53 53 53 51 48 43 37 34 31 30 27 23 22 21 20 19 20 24 28 31 35 37 40 41 38 40 48 49 51 51 49 49 47 46
45 49 52 52 53 54 53 50 51 54 55 54 54 51 46 41 39 35 32 28 25 23 21 20 19 21 24 26 28 31 34 38 42 38 48 52 49 53 51 48 47 49 46
41 47 51 52 51 55 52 50 53 53 55 57 55 52 48 45 41 36 32 29 27 23 24 22 20 20 22 22 26 29 31 34 37 40 45 54 50 53 50 52 53 53 51
38 43 46 48 48 52 49 49 53 55 56 55 54 53 50 46 43 38 33 30 27 24 22 19 20 18 18 19 22 24 28 35 38 37 37 51 47 51 54 57 55 52 52
37 41 41 42 49 50 47 50 53 56 56 56 55 53 49 46 40 37 35 30 27 24 21 19 20 16 14 15 17 22 25 32 41 41 37 34 47 56 59 56 49 55 55
31 35 37 41 45 47 47 50 54 54 54 56 54 53 50 45 41 39 36 32 29 24 21 19 17 14 14 15 16 19 23 28 32 39 20 34 47 48 43 49 51 58 52
Wind_Direction
226 225 226 229 234 244 255 265 283 300 310 319 323 325 326 325 324 321 315 304 291 280 272 269 268 270 273 273 286 279 276 277 282 288 289 288 274 270 264 259 258 257 258
227 228 228 229 230 234 243 257 272 288 303 315 318 320 319 319 320 318 310 300 290 279 270 262 258 259 267 273 355 15 332 27 282 279 282 289 287 284 285 277 266 261 260
228 229 229 228 228 230 237 244 260 280 298 311 316 318 319 322 323 318 306 294 285 279 273 265 257 257 263 58 50 3 358 282 306 321 281 285 288 290 312 323 280 270 265
228 229 230 228 229 232 236 240 251 268 287 305 312 315 315 316 318 309 297 280 276 272 269 272 267 260 255 236 251 326 308 27 33 300 294 306 293 287 279 273 276 273 266
230 231 231 230 230 232 232 236 242 255 277 298 311 315 317 315 309 297 277 257 256 279 275 267 270 266 276 278 283 302 330 272 281 289 315 308 287 288 289 289 290 282 269
230 231 230 229 230 229 231 236 241 252 267 287 304 314 320 313 299 281 270 264 267 272 264 254 260 295 297 295 290 288 297 295 299 300 292 293 294 299 298 294 286 280 283
230 231 230 229 229 230 234 234 238 244 257 274 293 312 318 304 272 223 191 14 150 334 304 287 291 299 297 294 296 301 308 310 313 316 312 307 299 294 295 290 285 289 291
229 230 230 230 230 228 228 231 235 240 248 256 275 304 265 289 258 243 252 281 233 346 333 314 312 308 307 300 301 317 319 317 321 317 310 306 302 298 295 295 295 291 289
228 230 229 230 230 230 231 234 235 237 241 243 258 273 262 212 208 255 247 242 261 307 319 311 320 328 338 344 351 359 1 341 331 322 317 311 307 302 296 292 292 288 286
227 228 228 228 229 230 230 232 232 233 240 243 243 257 273 268 255 254 268 243 262 305 312 325 335 343 349 2 345 4 342 335 331 324 320 318 316 311 306 303 300 299 292
228 228 227 226 227 229 230 231 231 233 236 243 245 246 256 266 264 255 264 261 274 302 322 354 2 0 356 349 353 339 336 336 333 330 326 321 315 311 309 308 308 304 303
230 228 228 228 229 229 228 229 230 232 236 239 241 246 254 258 268 265 263 274 286 292 313 328 346 350 354 347 343 347 344 344 340 336 331 327 325 323 321 319 316 310 306
231 230 228 227 227 227 228 228 229 232 234 236 243 247 252 261 268 267 267 273 280 290 274 290 318 332 342 342 341 344 343 342 340 337 333 330 328 326 324 323 320 317 311
236 235 232 231 231 230 229 229 229 231 233 234 236 241 249 257 263 264 262 265 276 284 289 281 314 327 336 337 338 339 338 339 337 335 333 330 326 324 322 320 318 314 309
241 239 236 235 234 230 229 229 229 230 231 233 236 240 248 257 265 266 265 265 264 265 282 289 304 321 328 330 332 333 333 333 332 330 327 325 323 322 320 318 316 312 308
244 241 237 234 234 234 231 229 229 228 229 232 235 240 246 254 259 263 264 263 264 258 254 268 284 303 309 317 322 324 324 325 324 323 324 324 322 318 315 316 317 315 310
247 244 239 235 233 233 232 231 230 229 230 232 234 238 242 248 255 260 263 266 265 262 264 272 284 297 308 317 321 321 321 321 320 320 320 320 320 319 320 321 320 319 313
250 247 246 241 235 232 232 232 232 230 230 230 233 236 240 245 248 252 257 261 261 262 270 280 289 300 310 316 321 323 325 328 330 330 330 328 323 318 318 325 323 319 316
252 248 245 243 237 231 230 231 233 233 232 232 232 234 238 241 246 250 252 254 255 259 268 278 289 302 314 321 322 327 329 329 330 332 335 332 330 330 330 332 324 321 318
257 253 251 246 240 234 231 231 232 231 231 232 232 231 233 239 244 248 251 251 248 257 269 279 290 304 314 321 328 328 326 328 328 329 333 329 331 330 331 332 328 325 321
264 259 255 249 243 238 232 229 229 229 229 230 230 230 231 233 239 243 245 245 245 253 262 273 288 302 311 322 326 328 325 325 324 332 329 327 328 326 329 328 324 325 323
268 261 256 250 246 241 236 232 230 229 229 229 229 227 228 231 235 238 241 241 244 252 260 267 280 300 312 318 321 322 323 323 329 333 326 321 324 322 326 324 322 322 317
272 264 258 252 247 244 238 234 231 229 228 228 227 227 227 229 231 233 236 238 242 250 255 271 288 298 303 312 313 314 322 320 318 323 322 315 322 322 324 318 319 319 317
270 264 258 253 247 242 238 235 234 231 228 228 228 229 229 230 230 231 232 233 237 242 257 269 281 285 291 299 313 316 315 311 310 314 320 312 324 321 319 317 317 316 316
274 261 257 251 243 239 234 230 232 232 228 224 224 226 228 228 227 227 227 227 233 239 248 261 268 280 297 300 303 307 312 311 312 317 324 314 323 320 317 317 318 320 314
278 267 260 253 247 241 234 230 230 232 228 224 222 224 225 225 225 227 227 228 231 235 239 248 257 271 286 293 299 304 307 307 305 312 312 314 317 322 317 310 310 317 312